Regional Weather Roundup
Issued by NWS Austin/San Antonio, TX

Current Version | Previous Version | Text Only | Print | Product List | Glossary On
Versions: 1 2 3 4 5 6 7 8 9 10 11 12 13 14 15 16 17 18 19 20 21 22 23 24 25 26 27 28 29 30 31 32 33 34 35 36 37 38 39 40 41 42 43 44 45 46 47 48 49 50
461
ASUS44 KEWX 130910
RWREWX
SOUTH TEXAS REGIONAL WEATHER ROUNDUP
NATIONAL WEATHER SERVICE AUSTIN/SAN ANTONIO TX
400 AM CDT SUN JUN 13 2021

NOTE: "FAIR" INDICATED FEW OR NO CLOUDS BELOW 12,000 FEET WITH NO
SIGNIFICANT WEATHER AND/OR OBSTRUCTIONS TO VISIBILITY.

* - THESE STATIONS ARE NOT NWS OR FAA STATIONS...AND ARE NOT SUBJECT
    TO NWS AND FAA QUALITY CONTROL.

TXZ171-172-183>190-131000-
TEXAS HILL COUNTRY AND EDWARDS PLATEAU

CITY           SKY/WX    TMP DP  RH WIND       PRES   REMARKS
JUNCTION       CLEAR     74  68  81 CALM      30.00S
*LLANO         CLEAR     70  68  94 CALM      29.95R
BURNET         CLEAR     75  70  84 CALM      29.99R
*HORSESHOE BAY CLEAR     76  70  82 CALM      29.96S
*LAGO VISTA    CLEAR     74  69  82 CALM      29.98S
*KERRVILLE     PTCLDY    72  68  89 S3        29.99S
*FREDERICKSBRG CLEAR    N/A N/A N/A CALM      29.99S
*ROCKSPRINGS     N/A     72  70  94 MISG      30.07R
*BOERNE        CLEAR     72  72 100 SW5       29.98S
*CASTROVILLE   CLEAR     76  74  95 CALM      29.97S
HONDO          CLEAR     73  71  93 CALM      29.96S
*UVALDE        CLEAR     72  72 100 E5        29.97F
DEL RIO        CLEAR     82  72  71 E9        29.93S
*LAUGHLIN AFB  CLEAR     78  72  81 SE8       29.94S
*SPOFFORD      CLEAR     76  76 100 E5        29.89S
*EAGLE PASS    CLEAR     79  72  78 SE5       29.93S
CARRIZO SPRGS  CLEAR    N/A N/A N/A SE7       29.92F
$$

TXZ173-191>194-202-209-217>225-228-131000-
CENTRAL AND SOUTH CENTRAL TEXAS

CITY           SKY/WX    TMP DP  RH WIND       PRES   REMARKS
GEORGETOWN     CLEAR     74  71  91 CALM      29.97S
*TAYLOR        CLEAR     73 N/A N/A CALM      29.95R
AUSTIN/BERGSTM MOCLDY    73  72  96 CALM      29.95R
AUSTIN/MABRY   CLEAR     77  71  82 CALM      29.96R
*PFLUGERVILLE  PTCLDY    75  73  94 CALM      29.94S
SAN MARCOS     CLOUDY    77  77 100 S5        29.96R
NEW BRAUNFELS  CLEAR     75  73  93 SW6       29.93S
*RANDOLPH AFB  CLEAR     76  75  97 SW7       29.94S
*SEGUIN        CLEAR     74  74  97 SW5       29.98S
SAN ANTONIO    PTCLDY    77  73  87 SW9       29.96R
STINSON FIELD  PTCLDY    77  73  87 SW3       29.93S
*KELLY FIELD   CLEAR     75  73  95 CALM      29.94S
*PLEASANTON    MOCLDY    75  73  95 CALM      29.94F
*KENEDY        CLEAR     76  74  95 S3        29.94S
*LA GRANGE     PTCLDY    78  78 100 CALM      29.93R
*GIDDINGS      PTCLDY    77  74  92 CALM      29.96R
*GONZALES      CLOUDY    76  76  99 CALM      29.94R
$$

TXZ163>164-176>182-195>201-210>213-226-227-235-131000-
SOUTHEAST TEXAS

CITY           SKY/WX    TMP DP  RH WIND       PRES   REMARKS
COLLEGE STN    PTCLDY    80  74  81 CALM      29.93F
*BRYAN         PTCLDY    78  77  96 CALM      29.95S
*CALDWELL      CLOUDY    77  75  95 CALM      29.95S
*CROCKETT      PTCLDY    73  73 100 CALM      29.92F
*BRENHAM       PTCLDY    78  76  93 CALM      29.94F
HUNTSVILLE     PTCLDY    81  79  94 S3        29.93S HX  90
CONROE         MOCLDY    80  75  84 SW5       29.94R
HOUSTON BUSH   CLOUDY    83  74  74 W3        29.93R
HOUSTON HOBBY  CLOUDY    82  74  76 W6        29.93R
*HOUSTON SW AP CLOUDY    77  76  95 CALM      29.94S
PEARLAND       CLOUDY    79  75  87 CALM      29.94S
HOUSTON HOOKS  CLOUDY    81  75  82 CALM      29.94R
ELLINGTON FLD  NOT AVBL
SUGAR LAND     CLOUDY    81  76  84 CALM      29.93S
*HOUSTON EXEC    N/A     79  77  94 SW5       29.95S
*CLEVELAND MUN CLOUDY    78  77  98 CALM      29.93S
*WHARTON       CLEAR     74  73  94 CALM      29.95S
*COLUMBUS      FAIR      76  75  98 CALM      29.95S
*EAGLE LAKE    PTCLDY    78  76  95 CALM      29.94S
$$

TXZ214>216-236>238-131000-
THE UPPER TEXAS COAST

CITY           SKY/WX    TMP DP  RH WIND       PRES   REMARKS
*ORANGE        CLEAR     79  76  89 CALM      29.93R
PORT ARTHUR    CLEAR     77  77 100 SW5       29.91R
GALVESTON      PTCLDY    81  75  82 SW3       29.93F
ANGLETON       PTCLDY    76  73  91 CALM      29.93S
*BAY CITY      NOT AVBL
PALACIOS       PTCLDY    78  76  93 CALM      29.93R
$$

TXZ229>234-239>247-131000-
TEXAS COASTAL BEND AND RIO GRANDE PLAINS

CITY           SKY/WX    TMP DP  RH WIND       PRES   REMARKS
VICTORIA       PTCLDY    77  74  90 CALM      29.94R
*BEEVILLE      CLEAR     76  76 100 SW5       29.92S FOG
ROCKPORT       CLEAR     77  75  93 S3        29.91R
*PORT ARANSAS  CLEAR     80  76  88 S8        29.93R
*PORT LAVACA   CLEAR     75  72  89 CALM      29.94R
*INGLESIDE     CLEAR     78  76  92 SW3       29.90S
CORPUS CHRISTI PTCLDY    75  75 100 S5        29.91S
CORPUS NAS     CLEAR     80  76  87 S7        29.90S
*ROBSTOWN      CLEAR     78  77  96 S5        29.92S
ALICE          CLEAR     75  74  96 SW6       29.92S
KINGSVILLE NAS CLEAR     74  73  97 S6        29.91F
COTULLA        NOT AVBL
LAREDO         CLEAR     78  72  81 SE7       29.93S
$$

TXZ248>255-131000-
DEEP SOUTH TEXAS

CITY           SKY/WX    TMP DP  RH WIND       PRES   REMARKS
BROWNSVILLE    CLEAR     78  74  87 SE3       29.90S
PORT ISABEL    CLEAR     77  75  93 SE3       29.91S
HARLINGEN      CLEAR     74  74 100 CALM      29.90F FOG
*HEBBRONVILLE  CLEAR     73  67  82 CALM      29.96S
MCALLEN        CLEAR     76  73  91 CALM      29.92S
*WESLACO       PTCLDY    73  72  95 CALM      29.91S
FALFURRIAS     CLEAR     72  72 100 CALM      29.93R
EDINBURG       CLEAR     74  73  98 CALM      29.92S
*ZAPATA        CLEAR     78  72  82 CALM      29.94S
$$

TXZ213>215-236>238-242>244-246-247-251-254-255-131000-
CMAN STATIONS

STATION/POSITION TIME  TEMP    WIND        PRES    WAVE
                       AIR SEA DIR/SP/G            HT/PER
                 (UTC) (F)     (DEG/KT/KT) (MB)    (FT/S)
NORTH JETTY/GLS  0830   83 85  230/  6/  7 1012.1
EAGLE POINT      0830   81 87  240/  4/  6 1012.8
MORGANS POINT    0830   82 84  240/  5/ 10 1013.2
MISSION/ARANSAS  0800   81     180/  9     1014.0
PORT O`CONNOR    0830   81 88  200/  6/  9 1012.8
PORT ARANSAS     0900   81 84  190/ 10/ 11 1012.7
MALAQUITE BEACH  0830   81     160/ 11/ 13   N/A
BAFFIN BAY       0830   80 87  140/ 10/ 11 1012.5
PORT ISABEL      0830   81 81  140/  5/  6 1013.7
$$




USA.gov is the U.S. government's official web portal to all federal, state and local government web resources and services.